カタログに戻る

NOAA 16 DEB

運用中SSO
NORAD 42368·DEBRIS·🇺🇸 United States

打ち上げ Sep 21, 2000 から Vandenberg Space Force Base

Loading…

次のパス (今後24時間)

TLE

最新Source: Space-Track

元期: Sep 14, 2026, 11:09 UTC

1 42368U 00055RL  26257.46489338  .00002517  00000-0  99383-3 0  9990
2 42368  98.7161 339.5051 0012570 158.7878 201.3827 14.29900004540014

AllMySatでNOAA 16 DEBをリアルタイム追跡

Download on the App Store